Content
SEND FEEDBACK

Daily
Averages
Monthly
Summary
United States of America

ST. LOUIS, MISSOURI


Home > North America > United States > Missouri
Elevation: 535 feet     Latitude: 38 45N     Longitude: 090 22W

WEATHER
 
SELECT A DAY
Number of Records: 201,261;   Date Range: 1/1/95 - 12/19/14
 
SHARE

PRINT THIS DATA

[ ← Previous Day ]
WEATHER ALMANAC - APRIL 17, 2014
[ Next Day → ]
[ °C ]   °F
Weather ElementAverageHighLow
Temperature53.5 °F64.9 °F (3:54 pm)37 °F (5:54 am)
Dewpoint35.2 °F41 °F (7:54 pm)27 °F (1:54 am)
Humidity51.3 %76 % (5:54 am)34 % (3:54 pm)
Barometer30.22 in30.27 in (9:54 pm)30.14 in (1:54 am)
Wind Speed4.7 mph10.4 mph (9:54 am)
Weather ElementAverage
Visibility10 mi
Wind DirectionSSE (154.8 °)

Weather ElementTotal
Precipitation---
Heating Degree Days14.1 (Base 65)
Growing Degree Days1 (Base 50)
Averaged from 23 records on April 17, 2014
WEATHER CONDITIONS BREAKOUT
WIND DIRECTION BREAKOUT
WEATHER BY HOUR - APRIL 17, 2014
[ °C ]   °F
Local TimeTemperatureDewpointHumidityBarometerVisibilityWind DirectionWind SpeedGust SpeedPrecipitationEventsConditions
1:54 AM46.0 °F27.0 °F47 %30.14 in10.0 miCalmClear
2:54 AM43.0 °F28.9 °F58 %30.15 in10.0 miCalmClear
3:54 AM41.0 °F28.9 °F62 %30.15 in10.0 miCalmClear
4:54 AM39.9 °F28.9 °F65 %30.16 in10.0 miCalmClear
5:54 AM37.0 °F30.0 °F76 %30.17 in10.0 miCalmClear
6:54 AM43.0 °F32.0 °F65 %30.19 in10.0 miWest (260°)3.5 mphMostly Cloudy
7:54 AM48.0 °F33.1 °F56 %30.21 in10.0 miSW (230°)5.8 mphScattered Clouds
8:54 AM54.0 °F33.1 °F45 %30.22 in10.0 miWSW (240°)9.2 mphScattered Clouds
9:54 AM55.0 °F33.1 °F43 %30.24 in10.0 miSW (220°)10.4 mphMostly Cloudy
10:54 AM57.2 °F35.6 °F44 %30.26 in10.0 miWest (280°)8.1 mphMostly Cloudy
11:54 AM61.0 °F37.0 °F41 %30.26 in10.0 miWNW (290°)10.4 mphMostly Cloudy
12:54 PM61.0 °F35.1 °F38 %30.25 in10.0 miWest (280°)4.6 mphClear
1:54 PM63.0 °F36.0 °F37 %30.24 in10.0 miWNW (300°)3.5 mphMostly Cloudy
2:54 PM64.0 °F37.0 °F37 %30.22 in10.0 miVariable5.8 mphMostly Cloudy
3:54 PM64.9 °F36.0 °F34 %30.21 in10.0 miVariable3.5 mphMostly Cloudy
4:54 PM64.0 °F39.0 °F40 %30.22 in10.0 miNorth (10°)5.8 mphClear
5:54 PM62.1 °F39.0 °F43 %30.23 in10.0 miNNE (20°)5.8 mphClear
6:54 PM61.0 °F39.0 °F44 %30.23 in10.0 miNorth (10°)6.9 mphClear
7:54 PM55.9 °F41.0 °F57 %30.23 in10.0 miNNW (340°)8.1 mphClear
8:54 PM54.0 °F41.0 °F62 %30.25 in10.0 miNorth (360°)5.8 mphClear
9:54 PM52.0 °F39.9 °F63 %30.27 in10.0 miNorth (350°)3.5 mphClear
10:54 PM52.0 °F39.0 °F61 %30.27 in10.0 miNNE (20°)4.6 mphPartly Cloudy
11:54 PM51.1 °F39.0 °F63 %30.27 in10.0 miNorth (350°)3.5 mphMostly Cloudy
Hourly data recorded from KSUS, located miles away from St. Louis, Missouri







STORIES FROM OUR PARTNERS